Home > Weather > Milton Keynes > Past weeks

Flag for United Kingdom Past Weather in Milton Keynes, England, United Kingdom — Yesterday and Last 2 Weeks

Now
48 °F

Cool.


Feels Like: 46 °F
Forecast: 47 / 65 °F
Wind: 5 mph from Northeast

Location: Luton Airport

Current Time: May 29, 2016 at 1:02:40 AM

Latest Report: May 29, 2016 at 12:20 AM


Visibility: 6 mi

Pressure: 29.95 "Hg

Humidity: 94%

Dew Point: 46 °F

Location of Milton KeynesLocation

Past Weather in Milton Keynes — Graph

°F

Milton Keynes Temperature Yesterday

Maximum temperature yesterday: 66 °F (at 4:20 PM)
Minimum temperature yesterday: 46 °F (at 3:20 AM)
Average temperature yesterday: 55 °F

High & Low Weather Summary for the Past Weeks

 TemperatureHumidityPressure
High68 °F (May 26, 4:20 PM)100% (May 16, 3:20 AM)30.21 "Hg (May 16, 3:20 AM)
Low37 °F (May 15, 1:50 AM)39% (May 15, 1:50 PM)29.59 "Hg (May 18, 12:20 PM)
Average53 °F79%29.97 "Hg
* Reported May 13 11:20 PM — May 28 11:50 PM, Milton Keynes, Weather by CustomWeather, © 2016

Note: Actual official high and low records may vary slightly from our data, if they occured in-between our weather recording intervals... More about our weather records

Advertising

Milton Keynes Weather History for the Previous 24 Hours

Scroll right to see more
 ConditionsComfort  
Time TempWeatherWind HumidityBarometerVisibility
11:50 PM
Sat, May 28
50 °FCool.5 mph88%29.95 "HgN/A
11:20 PM50 °FCool.6 mph94%29.95 "HgN/A
10:50 PM52 °FCool.7 mph88%29.95 "HgN/A
10:20 PM52 °FCool.7 mph88%29.98 "HgN/A
9:50 PM54 °FCool.8 mph82%29.98 "HgN/A
9:20 PM55 °FCool.10 mph82%29.95 "HgN/A
8:50 PM57 °FCool.10 mph77%29.95 "HgN/A
8:20 PM59 °FCool.10 mph77%29.95 "HgN/A
7:50 PM61 °FPassing clouds.9 mph72%29.95 "HgN/A
7:20 PM63 °FScattered clouds.10 mph68%29.95 "HgN/A
6:50 PM64 °FPartly sunny.9 mph64%29.92 "HgN/A
6:20 PM64 °FPartly sunny.9 mph64%29.92 "HgN/A
5:50 PM64 °FPartly sunny.12 mph64%29.92 "HgN/A
5:20 PM64 °FPartly sunny.9 mph64%29.95 "HgN/A
4:50 PM66 °FPartly sunny.10 mph60%29.95 "HgN/A
4:20 PM66 °FPartly sunny.6 mph60%29.95 "HgN/A
3:50 PM64 °FPartly sunny.8 mph64%29.98 "HgN/A
3:20 PM64 °FScattered clouds.5 mph68%29.98 "HgN/A
2:50 PM64 °FPartly sunny.7 mph68%29.98 "HgN/A
2:20 PM63 °FPartly sunny.6 mph73%29.98 "HgN/A
1:50 PM61 °FPassing clouds.7 mph77%29.98 "Hg6 mi
1:20 PM61 °FPassing clouds.5 mph77%30.01 "Hg5 mi
12:50 PM59 °FCool.6 mph77%30.01 "Hg6 mi
12:20 PM57 °FScattered clouds.6 mph82%30.01 "Hg5 mi
11:50 AM59 °FPassing clouds.6 mph77%30.01 "HgN/A
11:20 AM57 °FPassing clouds.6 mph82%30.01 "Hg5 mi
10:50 AM57 °FPassing clouds.8 mph82%30.01 "Hg5 mi
10:20 AM55 °FScattered clouds.8 mph88%30.01 "Hg5 mi
9:50 AM52 °FLow clouds.7 mph94%30.04 "Hg4 mi
9:20 AM50 °FLow clouds.6 mph100%30.04 "Hg4 mi
8:50 AM50 °FFog.9 mph100%30.04 "Hg3 mi
8:20 AM48 °FFog.8 mph100%30.04 "Hg1 mi
7:50 AM48 °FFog.9 mph100%30.04 "Hg2 mi
7:20 AM48 °FFog.9 mph100%30.01 "Hg2 mi
6:50 AM46 °FFog.7 mph100%30.01 "Hg3 mi
6:20 AM46 °FFog.6 mph100%30.01 "Hg2 mi
5:50 AM46 °FFog.7 mph100%30.01 "Hg2 mi
5:20 AM46 °FFog.7 mph100%30.01 "Hg2 mi
4:50 AM46 °FCool.7 mph100%30.01 "Hg4 mi
4:20 AM46 °FCool.7 mph100%30.01 "Hg4 mi
3:50 AM46 °FFog.6 mph100%30.04 "Hg3 mi
3:20 AM46 °FFog.6 mph100%30.04 "Hg3 mi
2:50 AM48 °FFog.6 mph94%30.04 "Hg3 mi
2:20 AM48 °FCool.7 mph100%30.04 "Hg4 mi
1:50 AM48 °FCool.6 mph100%30.04 "Hg4 mi
1:20 AM50 °FCool.6 mph94%30.04 "Hg4 mi
Weather by CustomWeather, © 2016

See weather overviewHow to use our weather pages